Theta_e
327 328 329 329 329 329 329 329 330 330 330 331 332 330 330 330 330 330 331 331 331 331 331 332 332 333 333 333 333 332 332 332 332 332 333 333 332 332 332 333 331 330 330 331 332 332 331 331 330 330 332 331 330 331 331 331 331 330 329 328 329 329 328 327 327 328 327 326 324 322 321 319 318 317 316 313 307 305 310 312 305 304 312 311 302
326 327 327 328 329 329 328 329 329 330 330 330 331 330 330 330 330 330 331 331 331 331 331 332 332 333 333 333 333 332 331 332 332 332 333 333 333 333 333 333 331 331 331 331 332 332 331 331 330 331 331 330 330 330 330 331 330 329 329 328 328 328 328 326 326 326 326 325 322 320 319 318 317 317 316 313 310 307 308 310 306 307 313 312 308
325 326 326 327 328 328 328 328 329 329 329 329 330 330 330 330 330 330 331 331 331 331 331 332 332 332 333 333 333 332 332 332 331 331 332 332 333 333 333 332 331 331 331 331 331 331 332 331 330 331 331 330 330 330 330 330 329 328 328 327 327 327 327 327 325 324 324 323 321 319 319 318 318 317 316 314 311 308 307 308 308 308 309 310 311
324 325 326 326 327 327 327 328 328 328 329 328 329 329 329 329 329 330 331 331 331 332 332 332 332 333 333 333 333 332 332 332 331 331 331 332 332 333 332 331 330 330 331 331 331 331 332 331 331 331 331 330 330 330 330 330 329 327 327 327 327 327 327 327 325 323 322 321 320 319 318 318 318 317 316 315 311 308 308 308 308 309 309 310 310
323 324 325 325 326 326 326 327 327 328 328 328 328 329 329 329 329 329 330 331 332 332 332 332 332 333 332 332 332 332 332 332 331 331 332 331 332 333 332 331 329 330 331 331 331 331 331 331 331 331 331 330 331 330 330 330 328 327 327 327 327 328 328 327 325 323 321 320 320 319 318 317 317 315 315 315 311 308 308 308 309 309 310 310 310
322 323 324 324 325 325 325 326 326 327 328 328 328 328 328 329 329 329 330 331 331 332 332 332 333 333 333 332 332 331 332 331 331 331 331 331 331 332 331 329 328 330 331 331 331 331 331 331 331 331 331 331 331 331 330 330 329 328 328 327 327 328 328 327 325 323 321 320 319 318 318 317 316 316 315 314 313 310 308 309 309 310 311 312 312
321 322 322 323 324 324 325 325 326 327 327 328 328 328 328 328 329 329 329 330 331 331 331 332 332 333 332 332 331 331 332 331 330 330 330 330 330 330 330 330 330 331 332 332 331 331 331 331 331 331 331 330 331 331 331 330 329 329 328 328 327 328 328 326 325 324 323 321 320 319 319 318 317 317 315 314 314 312 310 310 310 310 311 312 313
320 320 321 321 322 323 324 324 325 326 327 327 328 328 328 328 329 329 329 330 330 330 331 331 332 332 331 331 331 332 332 331 330 330 329 329 329 329 331 331 331 332 332 331 331 331 331 331 331 331 330 330 331 331 331 330 330 329 330 328 327 327 327 326 325 324 324 322 321 320 319 319 318 317 316 315 315 314 313 312 312 312 312 312 313
319 319 319 320 320 322 323 324 325 326 326 326 327 328 328 328 328 329 329 329 329 330 330 330 331 331 330 331 331 331 331 330 330 329 328 327 328 331 332 332 332 333 333 332 332 331 330 331 331 330 330 330 330 330 331 330 329 329 329 328 327 327 327 326 325 325 324 323 322 320 320 319 318 318 317 316 316 316 315 314 314 314 314 314 314
318 318 319 319 320 321 322 323 324 325 326 326 326 327 327 327 327 328 328 329 329 329 329 329 329 329 329 330 330 329 329 329 330 329 328 328 329 331 332 332 332 333 332 332 332 332 331 331 330 330 330 329 329 329 329 329 329 328 328 329 328 327 327 326 324 324 324 323 322 322 321 320 319 319 319 318 318 318 317 316 316 315 315 315 315
316 317 318 319 319 320 322 323 323 324 325 325 325 325 325 325 325 326 327 327 327 327 327 327 326 326 328 328 328 328 328 327 327 328 328 328 328 330 331 332 332 332 332 332 332 331 330 329 328 328 327 327 326 327 327 327 326 326 327 327 328 328 328 327 326 325 324 323 322 322 322 322 322 320 320 320 319 318 318 318 317 316 316 316 317
316 317 317 318 319 319 321 322 323 323 324 325 325 324 324 325 325 325 325 325 325 325 326 325 325 326 326 326 327 328 328 326 326 327 327 326 327 328 328 329 330 330 331 331 331 330 328 327 326 326 325 325 324 323 323 321 321 321 322 322 324 327 328 327 327 326 325 324 323 323 322 322 322 321 320 319 319 318 318 318 318 317 317 318 318
316 315 316 317 318 319 320 321 322 322 323 323 323 323 323 323 323 324 324 324 324 325 325 324 324 325 325 324 325 326 327 326 326 327 326 324 325 326 326 326 327 328 328 328 329 329 328 327 326 325 324 323 321 320 319 318 318 318 318 318 320 321 323 324 324 324 324 323 323 322 322 322 322 321 319 319 319 319 319 319 319 319 319 319 320
315 315 314 315 316 317 319 320 320 321 321 320 321 321 321 320 321 322 322 322 322 323 324 323 323 323 323 322 322 323 325 326 326 325 325 325 324 324 325 326 326 326 327 328 329 328 327 327 325 323 322 321 320 318 317 318 319 320 320 320 319 318 318 318 319 320 323 324 324 324 323 323 323 321 319 319 321 322 322 321 321 321 321 321 321
314 314 313 313 314 315 317 319 320 319 319 318 317 318 318 318 318 319 320 319 318 319 320 320 320 319 319 319 320 321 323 325 325 325 325 325 324 324 326 327 327 327 327 328 328 327 326 325 324 323 323 322 321 320 321 322 322 323 322 320 319 318 317 317 317 319 322 323 323 322 321 321 321 320 319 320 321 321 321 322 321 321 321 321 319
314 313 311 310 312 314 316 317 319 318 318 317 316 315 315 315 316 316 317 317 316 316 315 315 316 316 316 317 318 320 322 323 324 323 323 323 323 326 328 328 327 327 326 326 326 326 326 324 324 325 325 322 320 321 323 324 323 323 322 320 318 318 318 318 318 318 319 320 319 319 318 318 318 318 318 319 320 320 320 320 320 319 320 319 317
313 312 311 310 311 313 314 316 317 317 317 316 315 314 314 314 313 314 315 315 315 314 314 314 314 315 316 316 317 318 318 319 321 320 320 321 323 326 327 327 327 326 325 324 324 324 325 325 325 325 323 319 318 319 321 322 323 323 322 321 319 317 316 317 318 318 318 318 318 317 317 316 316 316 316 316 317 317 318 319 318 317 317 316 316
313 312 311 310 311 311 313 314 315 315 315 314 314 313 313 313 312 313 314 315 314 313 313 314 314 315 315 315 316 317 317 318 320 319 319 322 325 327 326 326 325 323 322 320 320 321 322 323 323 322 319 317 317 318 319 322 323 322 322 321 319 317 315 314 315 315 315 316 315 315 314 313 313 313 312 313 313 314 316 317 315 314 314 314 314
312 312 311 311 310 310 311 313 314 314 314 313 313 312 312 312 312 312 313 314 314 314 313 314 314 314 314 314 315 316 317 317 318 319 320 322 324 325 324 323 322 321 320 318 317 318 319 320 320 319 317 318 318 318 319 322 323 321 321 320 319 317 315 314 314 314 314 314 313 313 312 312 311 311 310 310 310 310 313 314 313 312 311 311 311
311 311 311 310 309 309 310 311 311 312 312 312 312 312 311 311 311 311 312 312 313 314 314 313 313 313 313 314 314 315 315 316 317 318 319 321 322 322 322 321 320 319 318 317 316 316 317 318 318 318 318 318 317 317 318 320 320 320 320 319 317 316 315 315 314 314 314 313 312 311 311 310 310 309 309 309 308 308 309 311 311 311 310 309 309
310 310 310 310 308 307 308 309 310 310 310 310 310 310 311 311 310 311 311 311 312 313 313 313 312 311 312 314 314 315 315 316 316 317 318 319 319 320 319 318 317 316 315 314 313 314 315 315 316 316 316 315 315 314 314 315 316 317 317 317 315 314 314 314 313 312 312 311 310 310 309 309 308 308 307 307 307 307 307 308 308 309 309 309 308
309 309 309 309 308 307 307 308 308 308 308 308 308 308 308 309 309 309 310 311 311 311 311 311 310 309 309 311 312 313 314 315 316 317 317 317 317 317 316 315 315 314 313 312 311 311 311 312 312 311 311 311 310 310 309 309 310 311 311 310 310 310 311 311 311 310 310 309 308 308 307 307 307 306 306 305 305 305 305 305 306 306 306 306 307
308 308 308 308 307 307 306 307 307 307 308 308 307 306 306 306 307 307 308 308 308 308 308 308 308 307 307 307 308 309 312 314 315 315 316 316 316 316 315 314 314 314 313 311 310 309 309 308 307 307 307 307 307 306 306 306 305 304 303 303 302 303 306 307 307 307 307 307 307 307 306 306 306 305 305 305 304 304 304 304 304 303 303 302 303
307 307 307 307 307 306 306 305 304 305 306 307 307 306 305 304 305 305 305 306 306 306 306 306 305 305 305 305 305 305 307 310 312 313 314 314 314 314 314 313 312 313 312 310 308 307 306 305 304 304 305 305 304 303 303 302 302 301 300 299 299 300 302 304 305 305 306 306 306 306 306 306 306 305 304 304 303 303 303 303 303 303 302 302 301
306 306 306 306 306 306 305 304 303 302 302 303 304 303 303 303 303 303 303 304 304 304 304 304 303 303 303 303 303 304 305 306 307 309 310 311 312 312 312 311 310 311 309 306 304 305 304 303 303 303 303 302 302 302 301 301 300 299 298 298 300 302 303 303 303 304 305 305 305 305 305 305 305 304 303 303 303 302 302 302 302 302 302 301 301
305 305 305 305 305 305 304 304 303 302 301 300 300 300 300 301 301 301 301 302 302 302 303 303 303 302 302 302 302 303 304 304 305 306 307 308 308 308 308 308 307 307 306 304 303 303 303 303 303 302 302 302 302 302 301 300 299 298 298 298 300 302 303 304 304 304 304 304 304 304 304 304 304 303 303 303 303 302 302 302 302 302 301 301 301
304 304 304 304 304 303 302 302 301 301 300 300 299 298 298 299 299 299 299 300 300 300 301 301 301 301 300 300 300 301 301 302 303 304 305 305 306 305 305 306 305 305 304 304 303 303 303 302 302 302 302 302 302 302 301 301 300 299 298 298 298 298 300 301 303 303 303 303 303 303 303 303 303 302 302 302 302 301 302 302 301 301 301 300 300
304 304 303 303 303 302 302 301 300 299 298 298 298 297 297 297 298 298 298 298 298 299 299 299 299 299 299 299 299 299 299 299 300 301 303 304 305 304 304 304 304 304 304 303 303 302 302 302 302 302 302 302 301 301 301 300 300 299 298 298 298 297 298 298 300 301 302 302 302 302 302 302 302 301 301 301 301 301 301 300 300 300 300 300 300
303 303 303 303 302 302 302 302 301 300 299 297 297 297 297 298 298 298 298 298 298 298 298 298 297 297 298 298 298 298 299 299 298 299 299 301 302 302 302 302 301 301 302 302 301 301 302 301 301 301 301 301 301 300 300 300 299 298 298 299 299 300 300 300 301 301 301 301 301 301 301 301 301 301 300 300 300 300 300 300 300 300 300 300 300
302 302 302 302 302 302 302 302 301 301 300 299 298 298 298 298 299 299 299 298 298 297 297 297 297 297 297 297 297 297 298 299 298 298 298 298 299 299 299 300 300 300 301 301 300 301 302 302 301 301 300 300 300 299 299 299 298 298 298 299 299 300 300 301 301 300 300 300 300 300 300 300 300 300 300 299 299 299 299 299 299 299 299 299 299
301 301 301 301 302 302 302 302 301 301 301 301 300 299 299 299 299 299 299 299 299 298 298 297 297 297 297 296 296 297 298 300 300 300 299 299 299 299 300 301 301 302 302 301 301 301 301 300 300 300 299 299 298 298 298 298 298 298 298 298 298 299 299 298 298 298 298 298 298 299 299 299 299 299 299 298 299 299 298 298 299 299 299 299 299
302 301 301 300 301 301 301 301 301 301 301 301 301 300 300 299 299 298 298 298 299 299 299 299 298 297 297 297 296 297 299 300 301 301 301 301 301 301 301 302 302 302 302 302 300 299 299 298 298 298 298 297 297 298 298 298 298 298 298 298 297 297 297 297 297 297 297 297 297 298 298 298 298 298 298 298 298 298 298 298 298 298 298 298 298
301 301 301 301 301 300 300 301 301 301 301 301 301 300 300 300 300 299 298 298 298 299 299 299 299 298 298 298 298 299 300 301 301 301 301 301 301 301 301 301 301 301 301 301 299 298 297 297 297 297 297 297 297 297 297 298 298 297 297 297 297 297 297 297 297 297 297 297 297 297 297 297 297 297 297 297 297 297 297 297 297 297 297 297 297
300 300 301 301 301 300 300 300 300 300 300 300 300 300 299 299 299 299 299 299 299 298 298 298 298 298 299 299 299 300 300 300 300 300 300 300 300 300 299 299 299 299 299 298 297 297 296 297 297 297 297 297 296 297 297 297 297 297 297 297 297 297 297 297 297 296 296 296 296 297 297 297 297 297 297 296 297 297 297 297 297 296 296 296 296
300 300 300 300 300 300 300 300 299 299 299 299 299 299 299 299 299 299 299 299 299 299 298 298 297 296 297 297 298 298 299 299 300 300 299 299 299 299 298 298 297 297 296 296 296 296 296 296 297 297 297 296 296 297 297 297 297 297 297 297 297 297 297 296 296 296 296 296 296 296 296 296 296 296 296 296 296 296 296 296 296 296 296 296 296
300 300 300 300 300 300 299 299 299 299 299 299 298 298 297 297 297 298 298 298 299 299 299 298 298 297 296 295 295 296 296 297 298 299 299 299 299 298 298 297 297 296 296 296 296 296 296 296 296 296 296 296 296 296 296 296 296 296 296 296 296 296 296 296 296 296 296 296 295 295 296 296 295 295 296 295 295 295 295 295 295 294 294 295 295
300 300 300 299 299 299 299 298 298 298 298 298 298 297 297 297 297 297 297 297 298 298 298 299 298 298 297 296 295 295 295 295 296 296 297 297 298 298 298 297 297 296 296 296 295 295 294 294 295 295 295 295 296 296 296 295 295 295 295 295 295 295 295 295 295 295 295 295 295 295 295 295 295 295 295 295 295 295 295 294 294 293 293 293 294
298 298 298 299 299 298 298 298 298 298 297 297 297 297 297 297 297 297 297 297 298 298 298 298 298 298 298 297 297 296 296 296 296 295 295 296 297 297 297 297 297 297 296 296 295 295 295 294 294 294 294 295 295 295 295 295 295 295 294 295 294 294 294 294 294 294 295 295 294 294 294 294 294 294 294 294 294 294 294 294 294 293 293 293 293
297 296 297 297 298 298 298 298 298 297 297 297 297 297 297 297 297 297 297 297 298 298 298 298 297 297 297 297 297 297 297 296 296 296 295 295 295 295 295 295 295 295 295 295 295 295 295 294 294 294 294 294 295 295 295 295 295 294 294 294 294 294 294 294 294 294 294 294 294 294 294 294 294 294 294 294 294 293 293 293 293 293 293 293 292
297 296 296 297 297 297 297 297 297 297 297 297 297 297 297 296 296 296 296 297 297 297 297 297 297 296 296 295 296 296 297 296 296 295 295 294 294 295 294 294 294 294 294 294 294 294 293 293 293 293 293 294 294 294 294 294 294 294 294 294 294 294 294 294 294 294 294 294 294 294 294 294 294 294 294 293 293 293 293 293 292 293 293 292 292
297 297 296 297 297 297 297 297 297 296 296 296 297 297 296 296 296 296 296 296 296 296 296 297 296 295 294 294 295 296 296 296 296 295 295 294 294 294 294 294 294 294 293 293 293 293 293 292 292 292 292 293 293 293 293 293 293 294 294 294 294 294 294 294 294 294 294 294 294 294 294 294 294 294 293 293 293 293 293 293 293 293 292 292 292
297 297 297 297 297 297 297 297 297 296 296 296 296 296 296 296 296 296 296 296 296 296 296 296 296 295 294 294 294 295 296 296 296 295 295 295 294 294 294 294 293 293 293 292 292 292 292 292 292 291 292 292 292 292 292 292 293 293 293 293 293 293 293 294 294 293 294 294 293 293 293 293 293 293 293 293 293 293 293 293 292 292 292 292 291
297 297 297 297 297 297 297 297 296 296 296 296 296 296 296 296 296 296 296 296 296 296 296 295 295 295 295 294 295 295 296 296 296 295 295 295 295 294 294 294 293 293 292 292 291 291 291 291 291 291 291 291 291 291 291 292 292 292 292 293 293 293 293 293 293 293 293 293 293 293 293 293 293 293 292 292 292 292 292 292 292 292 292 291 291
297 297 297 297 297 297 297 296 296 296 296 296 296 296 296 296 296 296 296 296 295 295 296 295 295 295 295 295 295 295 296 296 295 295 295 295 295 294 294 294 293 293 292 292 291 290 290 290 290 290 290 290 290 290 291 291 291 291 292 292 292 292 292 293 292 292 292 292 292 292 292 293 293 292 292 292 292 292 292 291 290 290 289 290 290
298 298 298 298 298 297 297 297 296 296 296 296 296 296 296 296 296 296 296 295 295 295 295 295 295 295 295 295 295 295 295 295 295 295 295 295 294 294 294 293 293 292 292 291 291 290 290 290 289 288 288 289 289 289 289 290 290 290 291 291 291 291 291 291 291 291 292 292 292 293 293 293 292 292 292 292 292 292 291 290 288 288 288 289 289
298 298 298 298 298 297 297 297 296 296 296 296 296 296 296 296 296 295 295 295 295 295 295 295 295 295 295 295 295 294 294 294 294 294 294 294 294 294 293 293 292 292 291 291 290 289 288 288 288 288 288 288 288 289 289 289 289 289 290 290 291 291 291 291 291 291 291 291 292 292 292 292 292 292 292 292 292 291 289 288 288 289 289 289 289
298 298 298 298 297 297 297 297 296 296 296 296 296 296 296 295 295 295 295 295 295 295 295 295 295 295 295 295 295 294 294 294 294 294 294 294 293 293 292 292 292 291 291 290 289 288 287 286 286 286 285 286 286 288 289 289 289 289 289 290 291 291 291 291 292 291 290 290 291 291 291 292 291 291 291 291 291 290 288 288 288 289 289 290 290
297 298 298 297 297 297 297 297 296 296 296 296 296 295 295 295 295 295 295 295 295 295 295 295 295 295 295 295 295 295 294 294 294 294 293 293 293 293 292 291 291 291 291 290 289 288 287 286 284 284 284 284 285 287 288 289 289 289 289 289 290 291 291 291 291 291 291 291 290 290 290 291 291 291 290 290 289 288 288 288 289 289 289 290 290
297 297 297 297 297 297 297 297 297 296 296 296 296 295 295 295 295 295 295 295 295 295 295 295 295 295 295 295 295 295 295 294 294 294 294 293 293 293 292 292 291 291 291 290 289 288 287 285 284 283 283 283 284 285 286 287 288 288 288 289 289 290 290 291 290 290 291 291 290 289 289 290 289 289 288 288 287 287 288 288 288 289 289 289 289
297 297 297 297 297 297 297 296 296 296 296 296 296 296 295 295 295 295 295 295 295 295 294 294 294 294 294 295 295 295 295 295 295 294 294 294 293 293 293 292 291 291 291 290 289 288 287 286 285 283 283 283 283 283 284 285 286 287 287 289 289 289 289 290 290 290 290 290 288 288 288 288 287 287 287 287 286 287 287 287 288 288 289 289 288
297 297 297 297 297 297 297 296 296 296 296 296 296 296 296 296 295 295 295 295 295 295 294 294 294 294 294 294 294 294 294 294 294 294 294 294 294 294 293 292 292 291 291 290 290 289 288 287 286 285 283 283 283 282 283 283 283 283 284 286 288 290 289 289 289 289 289 288 287 286 286 286 285 286 287 287 287 287 287 287 287 288 289 288 288
Wind_Speed
12 11 11 11 11 12 13 11 11 12 13 14 15 15 15 15 17 17 15 14 16 18 16 15 17 18 17 17 16 15 14 14 13 12 11 11 11 12 12 12 13 14 14 12 11 11 12 12 11 10 11 12 12 11 12 11 11 10 9 10 10 9 7 6 7 9 8 8 9 9 9 10 9 9 9 8 9 10 9 8 10 10 8 7 7
12 12 11 12 12 12 12 9 9 11 12 14 15 15 14 15 16 15 14 15 16 16 16 16 17 19 18 17 17 17 16 16 15 13 11 12 12 12 12 13 13 12 13 13 12 11 11 12 11 11 12 12 12 12 12 12 12 12 10 11 11 11 9 6 7 11 11 9 9 9 9 9 9 9 9 8 8 10 9 9 10 9 8 8 7
13 13 12 12 12 11 11 9 9 10 12 13 13 12 13 13 15 15 14 16 16 16 16 16 17 19 19 17 17 18 18 16 15 14 13 13 14 13 14 15 14 12 12 13 13 13 13 13 12 12 13 13 12 11 12 12 12 12 11 10 10 11 10 7 7 11 12 11 10 9 9 8 7 8 9 8 8 9 10 10 10 9 8 9 7
13 13 12 12 11 10 9 9 9 10 11 12 11 11 12 12 14 15 15 16 15 15 16 17 18 19 19 18 18 19 19 16 14 15 15 14 14 14 14 15 16 15 14 14 14 13 14 14 13 14 14 13 12 11 11 12 12 11 11 11 10 11 11 9 8 10 12 12 10 9 10 9 7 7 9 8 8 9 9 9 9 9 8 8 7
14 13 12 12 11 10 10 10 10 10 10 11 11 12 12 11 12 14 14 15 15 16 18 18 18 19 20 19 18 19 19 17 15 15 14 14 15 15 16 16 16 15 15 14 14 14 14 14 14 14 14 13 13 12 12 13 13 11 12 12 12 12 11 10 9 10 12 12 10 9 9 9 7 7 8 8 8 9 8 8 9 8 8 8 7
14 13 12 12 12 11 11 10 10 10 10 10 11 11 10 10 11 11 13 15 16 17 18 19 19 19 19 19 18 19 19 18 17 16 14 14 16 17 16 15 15 14 13 13 13 14 14 14 14 14 14 13 13 12 12 13 13 12 12 12 12 13 12 11 10 11 11 12 11 10 9 8 7 7 7 7 8 8 8 8 9 8 8 8 8
13 12 12 12 12 12 12 11 10 9 9 10 9 9 9 9 10 10 12 16 18 18 18 18 18 17 17 16 16 17 16 16 18 18 16 17 17 17 16 15 14 13 12 13 13 13 14 14 13 14 14 14 13 13 13 14 13 12 12 12 12 13 12 11 11 11 11 11 11 11 10 9 8 7 8 8 7 7 8 8 9 9 9 10 9
14 13 12 13 12 12 12 11 10 8 8 8 8 7 7 8 9 10 13 15 18 18 18 18 15 14 16 17 16 15 14 15 18 18 18 18 17 16 16 15 14 13 12 13 13 13 13 13 13 13 13 12 12 12 13 14 13 12 12 11 11 12 12 11 11 11 11 10 10 10 10 9 9 7 8 8 8 8 8 8 8 9 10 10 10
13 13 13 13 13 12 11 11 9 8 7 7 6 6 6 7 8 10 12 14 16 16 16 15 12 12 15 16 16 16 15 16 17 17 18 19 18 16 16 15 14 14 14 13 13 13 13 12 12 12 12 12 12 13 14 14 12 12 12 12 12 12 11 11 11 11 11 10 10 10 10 9 9 9 9 9 8 7 7 7 7 7 8 8 9
13 14 14 14 13 12 12 12 9 7 6 6 6 5 5 6 7 9 11 13 13 11 10 12 12 11 11 11 12 15 17 18 18 17 17 17 16 15 15 15 15 15 14 14 14 13 12 12 13 14 13 13 14 15 16 15 12 11 12 12 11 10 9 10 10 10 10 10 9 9 9 9 9 9 9 8 7 6 6 7 8 7 7 7 7
13 14 14 14 14 13 13 13 10 8 8 7 6 5 4 4 3 5 7 9 9 8 9 12 11 10 12 10 9 12 17 20 19 17 16 15 15 14 14 15 15 15 15 15 14 13 12 12 14 15 13 14 15 15 16 15 13 12 12 12 11 10 9 9 9 8 8 8 8 8 8 7 8 8 8 7 7 7 6 7 8 8 8 8 7
14 15 15 15 15 14 13 13 11 11 10 9 8 5 4 4 2 3 4 4 6 7 9 11 11 13 16 15 10 9 13 18 18 16 17 17 16 14 13 14 14 15 15 14 14 14 13 12 12 13 13 15 15 15 14 13 12 12 12 12 12 12 10 8 7 7 6 6 6 6 6 6 6 6 6 5 6 6 6 6 7 7 7 8 8
14 15 16 16 16 15 14 13 12 12 12 11 9 7 5 4 2 1 1 3 7 8 10 11 12 15 16 16 12 10 12 16 17 16 17 18 16 14 12 12 12 13 14 14 13 13 14 14 12 13 15 16 16 16 15 14 12 12 11 11 11 11 10 9 8 7 6 4 5 5 4 4 5 5 5 4 4 5 6 6 6 6 5 6 5
15 15 15 16 16 16 15 15 14 13 12 10 9 7 6 5 4 3 2 4 7 10 11 12 13 15 13 13 14 14 14 16 17 18 17 16 15 12 10 10 10 11 13 13 12 13 14 14 14 15 16 15 16 17 17 16 14 13 12 12 12 11 11 11 10 9 6 4 5 6 5 4 5 5 5 4 2 3 4 4 4 4 4 2 1
16 16 15 15 16 17 16 15 14 13 11 10 9 8 7 7 7 6 6 7 8 10 10 10 11 12 12 13 15 15 16 16 17 17 16 15 13 11 9 10 10 11 12 12 12 13 14 15 16 17 16 15 16 17 16 15 15 14 13 13 13 12 12 11 10 9 7 7 7 8 7 7 7 6 6 4 1 1 2 2 2 2 3 3 5
16 16 16 16 16 17 17 16 15 14 12 11 10 9 8 8 9 9 9 10 10 11 12 12 11 9 9 10 11 11 14 17 17 15 14 14 13 11 10 11 11 12 12 12 12 12 12 14 15 15 15 17 19 18 15 14 14 14 14 13 12 12 11 10 9 8 7 7 7 7 8 8 7 7 8 6 3 3 2 2 2 3 6 7 8
17 17 17 17 16 16 17 16 15 14 13 12 11 10 10 9 8 9 11 12 13 14 15 15 14 12 11 8 7 8 10 14 16 14 12 13 12 10 11 12 12 13 13 12 13 14 14 14 13 13 16 20 20 18 16 14 12 13 13 13 12 12 11 10 9 8 7 7 7 7 7 7 5 5 5 5 5 4 3 4 4 3 7 8 5
19 18 17 17 15 15 16 16 16 15 14 12 11 10 10 9 9 9 12 14 14 14 15 16 15 14 13 10 9 9 9 11 13 13 13 13 10 9 12 13 13 14 15 13 14 17 18 16 13 15 19 20 18 17 16 13 11 12 13 13 12 11 10 10 10 10 8 8 7 7 6 6 5 4 3 2 4 4 0 2 1 2 5 5 3
19 18 17 16 15 14 14 15 16 16 14 13 12 11 10 10 9 10 13 17 18 16 16 17 17 16 14 12 11 12 11 11 12 14 14 14 10 8 10 13 12 12 14 16 16 16 17 17 16 18 19 18 17 16 14 11 10 11 11 12 12 11 10 9 9 9 7 7 7 6 6 6 6 5 5 3 2 3 2 4 3 3 3 1 3
18 18 16 16 16 15 13 14 15 16 15 14 13 12 11 11 11 11 12 15 19 20 19 20 21 20 17 15 14 13 12 10 9 11 12 12 12 9 9 12 13 10 11 15 17 16 17 17 18 18 18 16 14 14 13 11 10 10 9 10 11 11 10 9 10 9 7 6 6 6 5 6 6 6 7 7 5 4 4 4 5 4 2 0 1
17 18 17 17 18 17 16 15 14 15 15 14 14 14 14 12 11 11 11 12 17 23 24 23 24 24 21 19 18 16 14 12 9 7 7 8 9 10 10 13 15 13 13 17 20 20 19 18 18 16 15 14 12 11 11 11 10 10 10 11 13 13 11 10 10 9 8 7 7 6 6 7 7 7 7 8 7 7 6 6 6 6 4 3 2
18 19 19 19 19 19 21 21 18 15 15 16 17 17 17 15 14 13 12 13 16 21 22 21 22 23 23 23 22 20 17 16 14 12 10 9 7 8 10 12 15 17 19 23 24 23 20 18 16 14 13 13 12 11 10 8 8 10 10 11 13 14 13 11 10 9 8 7 7 7 6 7 7 7 7 7 7 7 7 7 7 6 6 6 6
18 20 21 22 21 20 22 25 25 23 22 22 22 20 18 18 17 17 17 19 20 20 18 16 17 18 19 20 22 23 21 19 17 16 15 15 14 14 17 18 17 17 20 23 23 22 20 18 15 14 13 13 13 12 11 10 10 11 11 10 11 12 11 11 10 9 8 8 7 7 6 6 6 6 6 6 6 5 5 5 6 6 6 6 7
18 19 21 23 24 23 24 26 28 29 30 30 30 28 25 24 22 20 19 20 22 22 20 20 21 21 20 19 19 21 23 23 21 19 16 16 16 16 18 19 18 17 18 21 22 21 21 18 15 13 13 13 14 13 13 13 13 13 12 10 10 10 9 9 9 8 7 7 7 7 6 6 6 6 6 6 5 5 5 5 5 6 6 7 8
18 19 20 22 23 23 24 26 28 32 34 36 36 35 33 33 31 27 23 21 20 21 23 27 29 28 27 24 21 20 21 23 25 26 24 22 21 19 17 15 13 15 20 23 23 22 20 18 15 13 13 14 15 15 15 15 14 12 11 11 10 8 7 7 6 6 6 6 6 7 6 6 6 7 6 6 5 5 5 5 5 5 6 7 7
18 19 20 21 21 21 22 22 24 27 30 34 38 38 37 37 35 33 30 28 26 24 24 26 27 28 30 29 27 26 25 24 24 25 26 27 26 24 22 19 16 18 21 21 20 19 17 15 14 14 15 15 15 16 16 15 12 10 10 10 9 7 7 6 5 5 6 6 6 7 7 7 7 7 6 5 5 4 4 4 4 4 4 4 4
17 18 19 19 20 21 21 21 22 24 26 29 33 36 38 39 38 36 33 32 32 30 27 26 25 27 28 28 28 29 28 26 23 22 22 24 24 23 22 20 17 18 19 18 16 16 14 13 14 14 13 13 14 14 14 13 11 9 8 7 7 8 7 7 7 6 6 6 6 7 7 7 7 7 6 5 5 5 4 3 4 4 3 3 3
17 17 18 18 19 19 20 20 21 24 28 32 32 31 31 33 35 34 32 31 31 29 26 25 25 26 27 26 27 27 26 24 23 21 19 19 19 19 19 17 16 16 16 15 14 12 11 10 10 10 10 11 12 12 11 9 9 9 8 8 8 8 7 7 7 7 6 6 6 6 6 6 6 6 6 6 5 5 4 3 3 3 3 2 2
17 17 16 17 17 17 17 18 19 20 25 30 32 31 28 27 28 29 28 28 27 26 25 24 24 25 26 26 26 26 24 22 21 20 19 17 16 15 15 14 13 13 12 10 9 8 8 9 9 9 10 11 11 10 8 7 7 7 8 7 6 6 6 5 5 5 5 5 6 6 6 6 6 6 6 6 5 4 3 3 3 2 2 2 2
18 18 17 16 16 16 16 17 17 18 19 21 25 27 28 28 28 27 26 25 25 25 25 23 22 23 25 24 23 22 21 19 16 15 16 15 14 13 12 11 11 10 8 7 5 6 9 11 11 10 9 9 8 8 6 6 5 5 6 6 5 4 5 5 5 5 5 5 6 6 5 5 5 5 5 5 4 4 3 2 2 2 2 2 2
16 17 17 16 15 15 16 16 16 17 17 17 18 20 23 26 27 27 25 24 23 23 22 21 20 20 20 20 19 19 18 17 15 14 13 12 11 11 11 10 9 8 8 8 7 8 9 9 8 7 6 6 6 5 4 4 5 4 5 5 5 5 6 6 6 6 6 6 6 6 6 5 5 4 4 4 4 4 3 2 2 2 2 3 3
15 16 16 16 15 15 16 16 16 16 16 16 16 16 17 19 22 23 23 23 23 23 22 20 19 18 18 17 16 16 15 14 14 14 13 12 12 12 11 9 8 6 7 8 9 8 7 7 6 6 6 5 5 4 4 4 4 4 5 5 6 6 6 6 6 5 5 6 6 6 6 5 5 4 4 4 4 4 4 4 4 4 3 4 4
15 14 14 14 15 16 16 15 15 15 15 15 14 15 14 14 16 18 19 20 22 24 24 23 21 19 18 17 16 15 14 13 12 13 13 12 13 12 11 10 8 5 5 7 9 9 7 7 7 7 6 6 5 5 5 4 4 4 5 5 5 5 6 6 6 5 5 5 5 5 5 5 5 5 5 4 4 5 5 5 5 5 5 4 4
15 15 14 13 14 15 15 15 15 15 15 15 14 15 15 15 14 13 14 15 17 20 23 25 24 22 21 20 18 16 14 13 12 12 12 12 11 10 9 9 8 6 7 8 9 9 8 7 7 6 6 6 5 5 4 4 4 4 4 4 4 4 5 4 4 4 4 5 5 5 5 5 5 5 5 5 5 5 5 5 5 5 4 4 4
14 14 14 13 13 13 14 14 14 15 14 14 14 14 13 13 13 12 12 12 13 14 16 19 21 22 22 21 20 18 15 13 12 11 11 11 9 8 8 8 8 8 8 9 9 9 8 7 6 5 5 5 4 4 3 3 3 3 3 3 3 3 3 3 3 3 3 3 4 4 5 5 5 5 4 5 5 6 6 6 5 4 3 3 3
12 12 13 13 13 13 14 13 13 13 13 12 13 13 12 12 11 11 11 11 11 12 12 12 15 18 19 19 19 18 16 14 12 10 9 9 8 6 6 7 7 7 7 8 8 7 7 6 5 4 4 4 3 3 3 3 2 2 2 2 2 2 2 3 3 4 4 4 5 5 6 6 5 5 5 6 6 5 6 5 5 4 3 2 2
11 11 12 12 13 13 14 13 13 12 12 12 12 13 13 13 12 11 11 10 10 10 11 10 11 12 14 15 16 16 16 15 13 11 9 8 7 6 6 6 6 6 6 6 5 5 5 5 4 4 3 3 2 2 2 2 3 2 2 2 2 2 2 3 4 4 4 5 6 6 6 6 5 4 5 6 6 5 5 5 5 5 3 1 1
14 12 11 12 12 12 12 13 12 11 11 12 13 13 14 14 13 13 13 12 10 10 11 11 11 11 11 11 11 12 12 12 12 11 10 9 8 7 7 6 6 5 5 4 4 3 3 3 3 3 2 2 1 1 1 1 2 2 2 2 2 2 3 4 5 4 5 6 6 7 7 6 4 4 5 5 4 4 4 3 4 4 3 2 3
14 15 14 13 13 12 12 12 11 11 11 12 13 13 14 14 14 14 13 13 12 11 10 11 11 11 11 11 10 9 9 9 10 10 10 10 9 8 8 7 7 6 5 4 3 3 2 2 1 1 1 1 1 1 1 1 1 1 1 2 3 3 4 4 4 4 5 6 7 7 6 5 5 5 5 4 4 4 3 2 2 2 3 3 4
13 14 14 13 13 13 12 11 11 11 11 11 12 13 13 14 14 14 14 13 12 11 11 11 11 11 11 12 11 10 9 9 10 10 10 10 10 10 9 9 8 7 6 5 5 4 3 2 1 1 0 1 1 0 0 1 1 1 1 2 3 3 3 3 4 5 6 6 6 6 6 5 5 4 4 3 3 3 2 2 2 2 2 2 2
12 12 12 12 12 12 12 12 12 11 11 11 11 11 12 13 13 13 13 13 12 12 11 11 10 10 11 11 11 9 8 8 9 9 9 10 10 10 10 9 8 8 7 6 5 5 4 3 2 1 0 0 0 1 1 1 1 1 2 2 3 3 3 3 4 5 6 6 6 6 6 4 4 3 2 2 2 2 1 1 1 1 1 2 2
10 10 10 10 11 11 11 11 11 11 11 10 10 10 11 11 11 12 12 12 12 11 11 11 10 10 11 11 10 9 9 8 7 7 7 8 8 8 8 8 7 7 7 6 5 5 4 3 2 1 0 0 0 1 1 1 1 2 2 2 3 3 4 4 4 5 6 6 5 5 4 3 2 2 1 1 1 1 0 1 1 1 1 2 2
10 10 10 10 10 10 10 11 11 11 11 11 10 9 9 10 10 10 10 10 10 10 10 10 10 9 10 11 10 9 8 7 7 6 6 6 6 5 5 6 5 5 5 5 5 4 3 3 2 1 0 1 1 1 1 2 2 2 2 2 3 4 3 4 5 5 4 4 4 4 3 2 3 3 2 1 1 1 1 2 2 3 2 2 1
8 8 8 8 8 9 9 10 10 10 9 9 9 9 9 9 9 9 9 9 9 8 8 9 9 9 9 10 9 8 7 7 6 5 5 4 4 4 4 4 4 4 4 4 4 4 3 2 2 1 0 1 1 1 2 2 2 2 2 3 3 4 4 4 4 4 2 3 4 4 3 2 3 2 2 1 2 2 2 2 3 4 3 2 1
6 7 7 6 7 8 8 7 8 8 7 7 7 8 8 8 8 8 8 8 8 7 7 7 7 7 8 9 9 8 8 6 5 5 4 4 4 3 3 3 3 3 3 3 3 3 3 2 2 2 1 0 1 1 1 2 3 3 3 4 4 4 5 4 4 3 3 3 3 3 3 3 3 2 2 1 2 3 3 4 4 3 2 2 1
5 5 5 5 6 6 6 6 7 7 8 8 7 7 7 7 7 8 8 8 8 7 7 7 6 6 6 7 7 8 7 7 6 5 4 4 3 2 2 3 3 2 2 3 3 3 3 2 2 2 1 0 0 1 1 1 2 3 4 6 6 6 6 6 5 4 3 3 2 2 3 3 3 3 3 3 3 3 3 3 2 2 2 1 2
4 4 4 5 5 5 5 5 5 5 6 7 7 6 6 7 7 7 7 7 7 7 8 8 7 6 5 5 5 6 6 6 6 6 5 4 3 2 2 3 2 2 2 2 3 3 4 3 3 3 2 2 1 1 1 1 1 2 4 6 7 7 7 7 6 4 3 3 3 2 3 3 3 3 3 3 3 3 2 1 1 2 2 2 3
4 4 3 3 4 4 4 4 3 3 5 6 6 5 6 6 6 6 7 7 7 8 8 7 7 6 5 4 5 5 5 5 6 5 5 5 4 3 2 2 3 3 2 2 2 3 3 4 4 4 3 3 2 1 1 2 2 2 3 5 7 9 9 8 7 6 6 6 4 3 3 4 4 4 3 3 4 3 1 1 2 2 2 2 3
4 4 3 3 3 3 3 3 3 4 4 5 5 5 5 6 6 6 6 7 7 8 8 8 7 7 6 5 5 5 5 5 5 5 5 5 5 3 2 2 3 3 2 2 2 3 4 4 5 4 3 3 3 3 3 3 3 3 4 5 7 8 9 9 9 9 10 8 5 4 5 5 5 5 4 3 3 2 1 1 1 2 2 2 2
3 3 3 3 3 2 2 2 3 3 4 4 4 5 5 5 5 5 5 6 7 7 7 7 7 7 7 6 6 6 6 6 5 5 4 5 5 3 2 2 2 3 2 2 2 3 3 4 5 6 5 5 4 4 4 4 4 5 6 8 9 9 9 10 11 11 10 8 5 5 6 5 5 4 4 3 3 2 2 2 2 2 2 2 2
1 1 1 2 1 0 1 1 2 2 3 3 4 4 4 5 6 5 5 6 6 6 7 7 7 7 8 7 7 7 7 6 6 6 5 5 4 3 2 2 2 3 3 3 3 3 2 3 4 5 6 6 6 5 4 5 6 7 8 8 9 10 11 11 11 11 10 8 6 5 5 4 4 4 4 4 4 4 4 3 3 2 3 3 3
Wind_Direction
342 335 328 320 311 302 299 291 274 263 252 240 233 236 240 235 230 227 219 213 216 215 207 202 205 204 196 190 195 202 200 203 207 205 207 205 193 197 198 196 203 194 180 182 186 190 197 195 192 184 175 181 182 182 186 183 183 186 183 186 182 174 192 196 156 148 151 157 159 155 159 165 170 173 165 163 174 170 163 178 180 166 165 182 175
341 335 328 322 319 312 309 302 281 267 259 249 239 238 242 239 234 229 218 214 216 214 205 201 205 206 197 187 191 198 199 202 207 204 201 200 196 196 193 194 202 191 177 182 186 186 194 196 193 186 184 188 189 188 186 182 185 185 184 189 179 170 187 195 160 155 155 155 158 153 158 172 176 174 173 169 171 174 173 175 175 171 173 178 175
341 337 331 326 324 318 313 306 285 270 264 258 247 240 243 241 235 229 220 216 217 212 202 200 205 206 199 189 186 191 195 198 203 203 203 202 199 199 194 191 197 192 181 184 186 184 189 195 193 188 189 191 193 192 184 183 191 188 183 188 178 170 184 192 168 160 157 156 162 160 162 175 179 174 176 172 171 178 179 177 179 179 179 176 177
343 339 337 333 328 322 317 306 289 276 269 264 255 245 244 240 234 231 224 219 217 211 202 200 204 203 199 193 189 193 195 193 195 197 198 199 197 199 196 192 196 196 186 183 185 183 186 193 192 190 191 191 192 193 185 184 193 190 182 183 178 173 179 182 173 163 155 155 166 165 162 172 177 169 169 170 174 182 182 181 184 182 184 181 179
344 342 343 341 337 333 328 315 300 288 278 271 262 251 244 240 237 233 229 226 221 212 204 202 203 204 202 196 191 195 195 191 190 189 189 195 197 197 195 194 199 196 185 181 184 183 186 191 191 189 190 190 190 191 187 185 190 188 183 182 178 175 176 176 171 165 158 157 161 159 159 168 170 165 171 172 173 182 186 187 189 189 190 190 192
344 345 348 346 344 342 338 326 311 299 289 282 272 260 250 245 242 239 235 232 225 214 205 203 203 204 203 200 197 199 196 191 192 191 189 192 194 193 193 198 201 192 182 181 181 182 185 188 188 188 189 190 190 189 186 185 188 187 182 182 177 173 174 176 170 166 163 159 158 160 164 169 168 167 178 179 175 182 185 187 195 198 198 200 205
350 352 353 351 348 344 340 332 320 306 295 291 285 274 264 255 251 245 237 234 229 218 207 206 204 201 201 204 204 199 187 179 182 189 193 191 188 188 192 197 198 188 181 182 180 182 185 185 185 186 187 189 187 185 182 182 186 185 181 181 176 170 171 174 170 167 168 166 165 167 169 173 177 176 177 181 185 186 183 187 195 198 204 212 216
356 358 358 356 351 346 340 334 327 316 306 302 296 286 275 267 261 251 242 238 232 222 211 206 200 194 198 204 202 190 175 168 172 181 188 187 186 189 190 191 190 183 181 181 179 180 181 181 181 183 187 188 183 180 178 179 180 177 176 175 169 167 170 171 171 171 173 175 174 171 169 173 180 178 173 180 193 197 194 197 198 197 203 211 217
354 359 1 358 352 348 344 340 333 324 319 318 312 299 284 274 262 249 242 239 235 230 218 201 183 180 191 199 199 189 175 166 166 175 184 185 186 186 182 182 183 179 177 175 173 174 174 175 179 182 186 185 180 177 175 176 176 170 169 169 165 167 170 169 174 179 179 181 181 178 179 182 183 183 183 191 200 198 194 204 214 211 208 214 221
357 5 7 2 355 352 353 353 350 343 340 337 335 325 298 279 262 248 247 242 235 230 208 183 174 176 183 190 197 191 181 171 166 173 184 184 179 174 171 175 176 173 171 167 165 165 164 168 177 181 184 183 180 178 176 174 172 164 165 169 168 171 174 174 180 183 182 185 184 183 190 192 188 190 191 194 198 194 191 204 218 223 223 235 233
4 9 10 7 2 0 3 6 8 8 8 5 4 358 331 311 283 259 258 244 230 220 197 187 185 179 175 181 192 188 182 176 170 175 185 182 173 169 167 168 169 168 167 163 159 155 152 164 175 176 177 178 176 175 175 174 176 173 174 179 178 176 178 183 187 189 193 194 187 191 202 194 183 190 193 188 189 198 204 212 226 233 231 243 240
9 10 10 9 8 9 11 14 17 18 20 23 25 23 14 10 342 272 261 220 206 205 199 195 189 182 179 182 189 189 182 177 172 178 189 184 174 168 166 166 167 168 167 162 159 156 151 153 160 165 171 171 168 168 170 171 175 178 180 185 186 183 181 178 176 180 193 198 187 192 203 188 176 186 191 188 191 199 208 215 228 239 236 249 255
14 12 12 12 13 14 16 20 23 22 23 24 25 28 34 44 46 322 302 180 180 180 183 185 186 188 186 184 193 202 189 180 176 180 186 185 179 174 169 167 169 170 168 164 160 157 154 150 152 162 168 165 163 164 163 158 158 157 156 158 162 168 171 168 161 157 163 185 183 173 174 179 173 167 166 171 184 198 214 217 218 231 235 246 259
20 17 15 13 13 16 18 24 28 27 27 27 28 31 43 68 86 75 93 143 159 166 176 181 180 182 183 188 200 201 188 180 178 176 180 185 184 178 170 167 168 167 164 160 157 156 154 152 154 158 157 153 154 157 152 145 139 132 126 123 125 133 142 145 146 139 122 119 137 129 115 123 132 136 150 160 176 206 226 226 217 229 234 219 166
25 21 17 12 11 13 17 23 29 32 33 34 37 39 48 73 89 93 107 123 130 143 154 157 161 169 175 186 196 192 181 176 174 173 179 186 182 172 165 163 159 155 154 154 155 155 153 152 151 149 147 146 148 147 143 140 134 125 118 117 121 129 131 130 134 131 114 109 126 136 140 139 135 145 158 156 168 219 215 222 219 232 235 199 151
26 22 16 12 12 14 17 22 28 34 37 39 42 44 47 62 84 96 106 113 114 115 115 114 119 132 150 169 182 180 170 165 165 170 178 183 179 166 157 152 142 136 140 144 144 140 143 152 151 146 147 151 151 148 142 138 133 126 119 115 118 123 121 119 125 131 132 135 143 149 154 152 150 159 162 159 163 176 189 214 213 232 247 224 162
27 22 17 14 13 14 18 22 27 33 38 41 45 49 49 52 68 89 102 107 105 102 101 101 100 101 108 125 146 156 154 150 152 161 170 174 175 163 151 145 135 128 126 128 134 134 136 142 142 141 150 155 155 151 144 137 134 130 125 119 116 114 113 118 124 125 128 134 135 136 139 141 141 146 154 157 154 161 216 236 218 240 267 258 180
26 22 19 17 14 17 21 23 27 32 37 42 45 48 52 51 50 69 95 104 101 98 99 99 97 94 90 92 106 121 125 127 134 145 155 157 158 152 145 138 129 128 128 129 139 143 143 143 143 145 149 151 151 149 144 140 143 141 135 129 123 117 117 124 125 121 118 118 119 119 118 114 104 101 106 122 138 141 316 312 257 261 274 280 276
26 24 23 22 20 22 26 27 29 33 37 41 44 46 50 54 53 63 83 93 95 95 94 94 92 88 83 82 90 102 107 113 128 143 154 156 148 139 142 141 135 133 134 136 140 144 146 149 149 147 146 146 148 150 147 144 144 144 140 134 131 131 133 131 126 122 116 108 103 97 93 87 74 63 59 51 100 142 76 37 20 299 267 276 318
31 30 30 30 29 28 31 33 35 38 40 40 43 46 48 53 58 65 74 83 90 92 90 88 87 84 84 86 87 91 94 99 118 140 154 157 146 127 121 131 134 126 118 124 130 134 137 140 141 141 142 145 151 156 152 143 134 131 133 133 135 140 147 153 152 144 134 126 120 110 101 95 82 68 64 55 57 88 91 65 47 9 325 159 286
38 38 38 40 39 37 41 44 43 42 43 45 46 47 48 50 54 60 65 73 84 88 88 86 85 83 84 87 86 85 86 86 94 120 142 151 149 138 122 126 137 135 115 111 117 120 121 124 130 135 139 143 148 154 154 149 141 138 141 145 146 144 144 152 152 141 133 137 133 120 109 103 94 84 79 69 60 63 65 61 55 40 25 17 353
45 46 45 47 46 46 51 57 56 49 47 51 51 48 49 53 55 58 62 68 77 82 84 83 82 80 80 81 81 82 83 85 88 93 100 106 118 131 130 134 147 145 128 117 114 115 115 118 124 130 137 140 140 140 140 142 144 141 139 143 146 140 133 136 138 131 131 136 130 121 116 111 104 99 93 84 75 68 63 61 60 55 53 49 34
50 52 52 53 53 52 55 60 63 63 61 61 60 55 53 56 57 58 61 66 70 72 75 77 77 74 71 70 72 75 79 84 88 89 92 96 100 112 122 126 133 135 126 118 116 117 119 119 120 125 131 132 128 124 123 122 121 120 119 124 135 135 129 128 130 129 130 131 128 124 123 121 119 116 107 96 88 83 77 74 72 66 71 82 74
54 55 57 58 59 58 58 59 62 66 68 69 67 63 61 61 59 57 60 65 68 68 70 73 72 69 67 64 63 67 72 77 83 85 86 91 98 108 117 122 127 131 126 121 120 121 121 118 117 119 121 119 116 114 112 109 107 109 113 118 124 124 120 119 122 125 126 128 128 123 121 123 123 118 112 107 105 102 98 97 97 89 83 84 82
57 58 58 60 62 63 62 59 60 62 65 69 70 67 65 63 60 58 61 65 68 69 71 73 71 68 66 64 61 62 66 71 76 79 80 82 85 87 91 99 114 122 118 115 115 115 115 115 116 117 114 113 112 108 104 103 104 110 119 122 117 110 107 111 120 127 125 123 122 119 117 119 118 115 116 119 121 121 118 117 119 117 107 92 80
61 60 60 60 61 61 61 59 58 59 60 63 67 67 67 67 63 60 60 63 65 68 70 71 71 69 67 65 64 64 65 66 69 73 78 80 81 81 83 87 95 102 104 106 107 108 110 115 119 119 117 114 110 107 105 106 110 118 126 128 125 117 111 108 108 113 116 114 114 117 118 116 115 116 121 126 125 124 126 130 129 126 124 116 98
62 63 62 62 60 59 60 59 58 59 60 61 63 64 66 68 67 63 60 60 62 64 65 66 67 69 68 68 67 67 66 65 64 68 76 82 85 86 88 91 94 97 100 103 104 105 110 117 118 116 116 114 112 111 112 114 118 122 123 124 124 121 121 119 110 103 105 109 110 111 113 115 118 120 121 121 115 105 105 121 127 123 127 135 128
62 64 64 64 63 61 62 63 62 62 63 64 63 62 61 64 66 65 64 63 63 64 64 66 68 69 69 68 66 66 65 62 62 64 69 78 86 87 87 90 92 93 96 98 98 101 108 114 115 115 118 118 115 111 111 114 115 112 107 104 104 102 106 113 112 104 102 110 114 114 116 117 116 116 116 112 107 103 106 115 121 123 129 136 131
61 64 64 65 66 64 64 66 67 66 67 66 65 63 61 61 64 65 65 66 67 67 66 67 67 69 69 66 63 61 59 56 57 60 62 67 73 75 76 81 83 85 91 92 90 104 123 129 130 130 128 123 117 109 105 104 103 103 104 100 93 90 92 99 105 104 106 114 115 113 116 117 113 113 114 110 105 104 109 115 120 123 129 122 97
63 63 63 63 65 66 66 67 68 69 72 72 69 66 64 64 65 65 65 65 67 69 68 67 66 68 69 69 67 66 64 62 60 61 64 67 70 73 77 81 81 87 100 104 101 130 145 142 137 133 128 122 115 110 104 98 96 103 109 102 91 94 101 100 102 104 104 106 107 106 109 114 115 115 115 114 116 116 111 111 113 110 117 116 100
68 67 65 61 61 65 67 68 68 69 72 74 76 74 70 68 66 65 65 66 68 70 72 73 72 71 71 71 71 71 71 73 73 73 73 75 79 84 91 101 109 118 132 138 136 138 141 135 124 119 116 109 103 97 91 91 92 96 101 99 95 99 100 96 98 102 101 100 101 101 103 105 107 112 120 128 131 126 121 119 114 112 122 123 113
73 72 69 65 62 63 66 65 66 67 68 69 72 76 76 74 69 65 64 64 65 68 71 74 75 74 72 72 71 69 69 73 77 79 79 81 83 85 89 97 108 126 149 151 135 122 119 116 108 104 101 96 90 81 77 85 93 95 100 102 98 99 105 106 104 103 102 104 105 106 107 110 113 123 136 139 131 128 130 125 112 103 99 98 102
72 73 71 68 66 65 65 64 62 62 64 64 64 66 69 71 72 71 69 67 65 64 64 66 68 71 71 69 68 67 68 75 82 85 86 87 88 89 89 90 95 113 149 151 133 117 109 105 101 99 97 92 86 81 78 81 86 90 102 110 107 105 112 111 105 99 99 102 104 105 107 113 122 131 137 133 129 134 136 127 122 119 113 109 115
73 73 69 68 68 67 65 65 64 63 63 63 63 63 64 64 66 70 71 69 65 62 59 57 58 61 62 61 60 60 65 75 83 86 88 88 88 89 92 97 105 116 128 127 117 105 95 86 79 77 76 75 76 80 83 88 95 99 110 122 123 121 120 114 105 102 106 109 109 111 118 130 138 141 143 140 137 134 127 119 122 127 125 123 129
77 74 69 66 68 69 67 67 67 66 65 64 62 61 61 61 62 64 65 65 65 64 61 56 53 53 54 54 54 54 57 64 73 81 84 82 81 86 97 104 108 110 110 108 103 92 81 72 67 66 68 71 77 83 84 83 93 108 119 131 138 138 139 138 128 117 119 125 126 129 138 145 148 149 143 132 126 122 122 122 122 119 120 117 111
76 74 69 66 66 67 68 67 66 64 63 63 62 59 57 55 57 59 61 63 64 65 66 65 59 53 50 50 49 49 50 52 57 65 66 62 63 79 99 105 106 109 112 112 110 103 91 81 74 69 72 76 77 81 85 83 84 93 106 126 143 143 133 133 131 124 126 131 134 142 147 143 140 141 131 119 113 109 111 115 106 96 100 110 105
69 69 69 70 72 73 72 70 68 64 61 60 59 57 55 53 53 55 57 59 61 61 63 66 64 56 50 48 46 45 45 44 45 47 48 50 59 78 93 97 97 98 99 96 94 93 92 90 86 80 83 89 88 87 89 83 79 87 97 105 121 135 134 135 134 131 135 140 143 149 149 142 139 137 124 117 120 122 123 124 115 105 100 82 80
70 71 70 69 75 79 76 72 69 66 61 58 57 55 54 53 53 55 57 57 60 62 62 60 57 52 47 43 40 41 43 41 40 42 46 53 64 73 79 81 79 74 70 64 60 61 68 76 78 73 77 87 94 104 112 94 84 93 104 105 107 110 121 132 135 135 142 148 148 146 147 144 135 121 111 110 116 123 130 137 134 128 117 76 65
79 80 79 75 75 77 74 70 68 63 60 61 60 57 56 55 53 54 56 56 56 59 61 60 54 48 42 37 34 36 41 42 42 44 48 55 60 62 64 67 68 67 65 58 52 54 60 64 73 79 82 84 84 102 156 159 140 129 126 131 132 125 123 132 142 148 153 154 151 148 149 142 123 110 107 112 118 120 120 116 104 98 88 75 72
83 83 82 80 79 77 73 70 67 63 61 63 62 59 56 55 54 53 53 54 54 53 52 54 52 45 40 41 40 38 38 43 51 55 58 62 64 64 65 66 66 67 68 64 58 57 52 48 55 67 86 103 113 147 173 177 191 191 191 185 178 168 159 153 155 159 159 155 152 151 147 136 125 122 122 117 117 125 133 127 105 77 73 76 75
90 88 85 82 82 80 76 70 67 65 64 64 63 61 59 56 54 53 51 50 51 50 48 49 50 43 37 40 47 46 41 45 55 62 65 67 67 65 65 65 64 63 64 62 62 62 57 51 54 59 75 82 54 247 208 182 199 207 209 207 192 180 173 161 156 160 159 155 153 152 143 132 128 135 139 140 146 150 151 132 114 94 79 62 46
92 92 88 84 80 77 74 71 69 67 65 62 59 59 58 55 53 53 51 47 46 47 46 46 47 42 36 39 51 56 50 48 56 62 63 65 67 67 66 65 63 63 62 58 57 59 58 55 52 39 29 133 261 255 225 211 205 194 200 200 181 175 176 167 158 160 160 157 154 142 127 132 160 162 166 219 211 173 29 359 356 353 9 32 29
88 87 87 84 80 75 72 72 70 65 63 63 60 53 51 51 49 49 49 46 41 40 40 40 40 38 37 41 48 51 47 47 54 56 54 58 62 64 65 65 62 63 62 59 57 56 57 61 63 50 283 237 224 214 217 217 206 193 199 190 170 174 182 173 165 167 163 157 155 141 128 166 199 192 190 248 283 318 343 341 336 332 336 357 15
93 92 89 86 83 79 75 74 73 68 69 75 71 56 48 48 45 40 39 38 34 32 33 33 31 30 31 34 36 35 36 40 43 43 46 50 51 53 59 61 60 61 58 52 50 52 54 57 61 64 106 233 244 231 217 212 202 201 210 199 179 178 179 172 173 177 161 142 151 161 173 201 219 213 207 249 298 304 319 342 342 334 332 339 353
90 89 88 86 84 84 81 77 73 66 62 64 62 52 46 47 44 37 30 28 24 21 21 24 25 25 28 30 30 30 31 31 29 28 27 23 22 32 47 46 43 46 45 33 25 35 48 49 30 29 45 147 230 244 227 218 211 206 198 184 177 178 181 182 182 176 155 144 158 184 201 213 228 236 241 271 307 315 329 344 347 346 349 359 30
83 81 85 83 80 81 79 71 64 58 51 46 43 43 43 43 40 35 30 25 20 17 16 17 17 17 20 23 25 26 25 24 22 17 7 1 6 20 31 28 23 21 18 6 357 359 9 19 8 1 10 34 254 256 236 219 212 200 189 183 183 185 190 195 191 175 166 175 200 223 229 227 235 253 272 289 306 328 345 348 356 26 54 74 84
81 77 82 84 84 86 82 69 56 50 46 42 39 37 36 34 32 33 33 29 22 18 17 14 13 13 12 12 15 17 17 18 19 15 7 3 4 1 1 5 358 345 346 355 356 351 352 349 338 323 316 321 313 242 226 240 219 197 189 191 192 193 196 198 193 183 187 197 207 230 253 259 257 260 277 293 301 323 357 29 66 68 80 114 112
79 77 78 82 87 91 86 76 62 46 42 42 40 35 28 23 23 27 29 25 22 20 17 14 12 10 5 356 354 356 358 1 4 6 5 3 358 347 346 350 343 336 333 335 341 347 345 337 329 323 317 317 313 270 235 244 235 218 209 202 198 198 202 205 206 210 213 213 218 240 255 266 276 282 292 302 300 298 298 135 116 103 108 125 120
76 77 75 76 81 81 75 68 59 46 36 30 28 26 19 11 13 18 17 13 15 17 15 12 10 6 357 347 338 333 333 335 336 338 345 350 347 340 336 338 340 341 337 320 322 335 340 339 339 336 321 303 289 268 249 241 234 234 233 218 206 203 206 208 211 217 219 221 236 261 261 262 275 280 275 268 263 247 200 165 144 130 127 125 128
77 76 75 82 93 96 83 67 51 41 31 13 6 11 8 357 356 3 1 358 2 7 5 4 3 358 353 346 335 323 317 317 315 313 318 330 333 327 313 315 328 331 327 318 314 317 324 333 339 340 334 319 301 286 269 253 242 238 234 224 214 212 215 219 222 226 226 225 238 263 267 264 264 261 245 219 202 193 181 174 172 166 151 141 154
88 83 80 86 90 75 75 64 30 14 10 353 343 346 345 340 341 345 342 340 345 350 349 349 349 348 347 345 336 323 312 307 305 301 297 302 311 307 292 291 303 306 308 309 304 298 302 313 324 332 334 325 314 307 290 268 259 254 247 233 220 217 225 233 236 236 235 234 235 251 265 259 236 217 203 190 186 189 185 173 167 169 165 153 153